This is the latest recevied weather packets stored in our database for station/object N3WMC. If no packets are shown the sender has not sent any weather packets the latest 10 day(s).
| Time | Temp. | Humidity | Pressure | Rain* | Wind** | Luminosity | Snow |
|---|---|---|---|---|---|---|---|
| 1788018563 | 24.44° C | 44% | 1025.8 hPa | 0 mm | - | 580 W/m² | - |
| 1788018261 | 24.44° C | 45% | 1025.8 hPa | 0 mm | - | 573 W/m² | - |
| 1788017958 | 24.44° C | 47% | 1025.9 hPa | 0 mm | - | 567 W/m² | - |
| 1788017653 | 23.89° C | 50% | 1025.9 hPa | 0 mm | - | 563 W/m² | - |
| 1788017350 | 23.89° C | 49% | 1025.9 hPa | 0 mm | - | 560 W/m² | - |
| 1788017046 | 24.44° C | 47% | 1025.9 hPa | 0 mm | - | 548 W/m² | - |
| 1788016745 | 23.89° C | 50% | 1026 hPa | 0 mm | - | 542 W/m² | - |
| 1788016444 | 23.33° C | 51% | 1025.9 hPa | 0 mm | - | 538 W/m² | - |
| 1788016143 | 23.33° C | 51% | 1026 hPa | 0 mm | - | 533 W/m² | - |
| 1788015842 | 23.33° C | 52% | 1026 hPa | 0 mm | - | 525 W/m² | - |
| 1788015537 | 22.78° C | 53% | 1026 hPa | 0 mm | - | 519 W/m² | - |
| 1788015232 | 22.78° C | 54% | 1025.9 hPa | 0 mm | - | 512 W/m² | - |
| 1788014931 | 23.33° C | 54% | 1026.1 hPa | 0 mm | - | 503 W/m² | - |
| 1788014631 | 23.33° C | 56% | 1026 hPa | 0 mm | - | 489 W/m² | - |
| 1788014326 | 22.78° C | 58% | 1026.1 hPa | 0 mm | - | 484 W/m² | - |
| 1788014021 | 22.78° C | 59% | 1025.9 hPa | 0 mm | - | 475 W/m² | - |
| 1788013715 | 22.78° C | 57% | 1025.8 hPa | 0 mm | - | 460 W/m² | - |
| 1788013410 | 22.78° C | 60% | 1025.8 hPa | 0 mm | - | 452 W/m² | - |
| 1788013109 | 22.22° C | 62% | 1026 hPa | 0 mm | - | 443 W/m² | - |
| 1788012809 | 21.67° C | 62% | 1025.8 hPa | 0 mm | - | 435 W/m² | - |
| 1788012504 | 21.67° C | 61% | 1025.9 hPa | 0 mm | - | 416 W/m² | - |
| 1788012204 | 21.67° C | 62% | 1025.7 hPa | 0 mm | - | 407 W/m² | - |
| 1788011902 | 21.11° C | 62% | 1025.8 hPa | 0 mm | - | 397 W/m² | - |
| 1788011601 | 20.56° C | 64% | 1025.6 hPa | 0 mm | - | 388 W/m² | - |
| 1788011298 | 20° C | 65% | 1025.7 hPa | 0 mm | - | 379 W/m² | - |
* Rain latest hour (hover to see other rain measurements)
** Current wind speed in m/s (hover to see current wind gust speed)